Kirksville, MO

7:14 AM CDT on August 23, 2017 (GMT -0500)
Kirksville Regional

Weather History for KIRK - December, 2013

Change the Weather History Date:

Friday, December 20, 2013

  Actual Average Record
Temperature  
Mean Temperature 36 °F 28 °F  
Max Temperature 45 °F 36 °F 65 °F (1941)
Min Temperature 27 °F 19 °F -13 °F (1983)
Degree Days  
Heating Degree Days 29 38  
Month to date heating degree days 765 701  
Since 1 July heating degree days 2032 1922  
Cooling Degree Days 0 0  
Month to date cooling degree days 0 0  
Year to date cooling degree days 1028 939  
Moisture  
Dew Point 31 °F    
Average Humidity 96    
Maximum Humidity 100    
Minimum Humidity 92    
Precipitation  
Precipitation 0.13 in 0.06 in 1.10 in (2006)
Month to date precipitation 0.88 1.22  
Year to date precipitation 37.79 38.78  
Sea Level Pressure  
Sea Level Pressure 29.81 in    
Wind  
Wind Speed 8 mph (NNW)    
Max Wind Speed 16 mph    
Max Gust Speed 20 mph    
Visibility 3 miles    
Events Rain    
T = Trace of Precipitation, MM = Missing Value Source: NWS Daily Summary

Daily Weather History Graph

Daily Weather History Graph

Search for Another Location

Airport or City:

Trip Planner

Search our weather history database for the weather conditions in past years. The results will help you decide how hot, cold, wet, or windy it might be!

Date:

Astronomy

Dec. 20, 2013 Rise Set
Actual Time 7:28 AM CST 4:47 PM CST
Civil Twilight 6:57 AM CST 5:18 PM CST
Nautical Twilight 6:23 AM CST 5:52 PM CST
Astronomical Twilight 5:50 AM CST 6:25 PM CST
Moon 8:08 PM CST (12/20) 9:22 AM CST (12/20)
Length of Visible Light 10h 20m
Length of Day
9h 19m
Waning Gibbous, 90% of the Moon is Illuminated
Dec 20
Waning Gibbous
Dec 25
Last Quarter
Jan 1
New
Jan 7
First Quarter
Jan 15
Full

Hourly Weather History & Observations

Time (CST) Temp. Windchill Dew Point Humidity Pressure Visibility Wind Dir Wind Speed Gust Speed Precip Events Conditions
12:55 AM 41.0 °F 36.4 °F 39.0 °F 93% 29.73 in 3.0 mi NNW 6.9 mph - 0.00 in   Overcast
1:09 AM 39.9 °F 34.5 °F 39.0 °F 97% 29.70 in 2.5 mi North 8.1 mph - N/A   Overcast
1:16 AM 39.9 °F 34.5 °F 37.9 °F 93% 29.71 in 2.5 mi North 8.1 mph - N/A   Overcast
1:39 AM 37.9 °F 31.5 °F 37.0 °F 97% 29.72 in 1.8 mi North 9.2 mph - N/A   Overcast
1:55 AM 37.0 °F 30.4 °F 36.0 °F 96% 29.74 in 1.8 mi North 9.2 mph - 0.00 in Rain Light Rain
2:02 AM 37.0 °F 30.4 °F 35.1 °F 93% 29.72 in 1.5 mi North 9.2 mph - 0.01 in Rain Light Rain
2:26 AM 36.0 °F 28.0 °F 34.0 °F 93% 29.73 in 2.5 mi North 11.5 mph - 0.03 in   Overcast
2:55 AM 35.1 °F 27.9 °F 34.0 °F 96% 29.75 in 1.8 mi North 9.2 mph - 0.04 in   Overcast
3:41 AM 35.1 °F 28.6 °F 33.1 °F 92% 29.73 in 2.5 mi North 8.1 mph - 0.05 in Rain Light Rain
3:55 AM 34.0 °F 25.5 °F 33.1 °F 96% 29.74 in 2.5 mi NNE 11.5 mph - 0.05 in   Overcast
4:50 AM 33.8 °F 24.8 °F 32.0 °F 93% 29.73 in 1.8 mi North 12.7 mph - N/A   Overcast
4:55 AM 33.1 °F 23.9 °F 32.0 °F 96% 29.76 in 1.8 mi North 12.7 mph - N/A   Overcast
5:52 AM 32.0 °F 23.6 °F 32.0 °F 100% 29.73 in 1.5 mi North 10.4 mph - N/A   Overcast
5:55 AM 32.0 °F 23.6 °F 32.0 °F 100% 29.76 in 1.5 mi North 10.4 mph - 0.00 in   Overcast
6:04 AM 32.0 °F 24.8 °F 32.0 °F 100% 29.73 in 1.2 mi North 8.1 mph - 0.00 in   Overcast
6:22 AM 32.0 °F 23.6 °F 32.0 °F 100% 29.74 in 1.2 mi North 10.4 mph - 0.00 in   Overcast
6:55 AM 32.0 °F 24.2 °F 32.0 °F 100% 29.78 in 1.5 mi North 9.2 mph - 0.01 in   Overcast
7:21 AM 32.0 °F 24.2 °F 32.0 °F 100% 29.75 in 1.8 mi North 9.2 mph - N/A   Overcast
7:55 AM 32.0 °F 23.6 °F 32.0 °F 100% 29.79 in 1.8 mi North 10.4 mph - N/A   Overcast
8:10 AM 32.0 °F 23.6 °F 32.0 °F 100% 29.76 in 2.0 mi North 10.4 mph - N/A   Overcast
8:18 AM 32.0 °F 25.6 °F 32.0 °F 100% 29.77 in 1.2 mi NNW 6.9 mph - N/A   Overcast
8:55 AM 33.1 °F 26.9 °F 33.1 °F 100% 29.81 in 1.5 mi NNW 6.9 mph - 0.03 in   Overcast
9:08 AM 33.1 °F 27.7 °F 33.1 °F 100% 29.79 in 2.0 mi NNW 5.8 mph - 0.00 in   Overcast
9:26 AM 33.1 °F 25.5 °F 33.1 °F 100% 29.80 in 1.8 mi NNW 9.2 mph - 0.00 in   Overcast
9:55 AM 33.1 °F 26.1 °F 32.0 °F 96% 29.85 in 1.2 mi NNW 8.1 mph - 0.00 in   Overcast
10:03 AM 33.1 °F 25.5 °F 32.0 °F 96% 29.82 in 1.2 mi NNW 9.2 mph - N/A   Overcast
10:27 AM 33.1 °F 26.1 °F 32.0 °F 96% 29.83 in 1.8 mi NW 8.1 mph - N/A   Overcast
10:36 AM 32.0 °F 26.4 °F 32.0 °F 100% 29.83 in 2.5 mi NW 5.8 mph - N/A   Overcast
10:55 AM 33.1 °F 26.1 °F 32.0 °F 96% 29.86 in 3.0 mi NNW 8.1 mph - N/A   Overcast
11:06 AM 33.1 °F 26.9 °F 30.9 °F 92% 29.83 in 2.0 mi NNW 6.9 mph - N/A   Overcast
11:32 AM 33.1 °F 26.1 °F 32.0 °F 96% 29.83 in 1.8 mi NW 8.1 mph - N/A   Overcast
11:47 AM 32.0 °F 25.6 °F 30.9 °F 96% 29.82 in 2.5 mi NNW 6.9 mph - N/A   Overcast
11:55 AM 32.0 °F 23.6 °F 30.9 °F 96% 29.85 in 2.0 mi NW 10.4 mph - N/A   Overcast
12:22 PM 32.0 °F 24.8 °F 30.9 °F 96% 29.81 in 4.0 mi NNW 8.1 mph - N/A   Overcast
12:48 PM 30.9 °F 22.2 °F 30.0 °F 96% 29.80 in 2.5 mi NW 10.4 mph - N/A   Overcast
12:55 PM 30.9 °F 22.8 °F 30.0 °F 96% 29.84 in 2.5 mi NW 9.2 mph - N/A   Overcast
1:04 PM 32.0 °F 25.6 °F 30.0 °F 92% 29.81 in 5.0 mi NNW 6.9 mph - N/A   Overcast
1:55 PM 30.9 °F 24.3 °F 30.0 °F 96% 29.85 in 3.0 mi NNW 6.9 mph - N/A   Overcast
2:03 PM 30.9 °F 22.8 °F 28.9 °F 92% 29.81 in 2.0 mi NNW 9.2 mph - N/A   Overcast
2:32 PM 30.9 °F 23.5 °F 28.9 °F 92% 29.82 in 1.2 mi NW 8.1 mph - N/A   Overcast
2:41 PM 30.0 °F 23.2 °F 28.9 °F 96% 29.82 in 3.0 mi NNW 6.9 mph - N/A   Overcast
2:55 PM 30.0 °F 22.4 °F 28.9 °F 96% 29.86 in 3.0 mi NW 8.1 mph - N/A   Overcast
3:55 PM 30.0 °F 22.4 °F 28.0 °F 92% 29.88 in 4.0 mi WNW 8.1 mph - N/A   Overcast
4:55 PM 28.9 °F 21.1 °F 27.0 °F 92% 29.91 in 10.0 mi WNW 8.1 mph - N/A   Overcast
5:55 PM 28.9 °F 19.8 °F 27.0 °F 92% 29.92 in 10.0 mi WNW 10.4 mph - N/A   Overcast
6:25 PM 28.0 °F 20.0 °F 27.0 °F 96% 29.87 in 6.0 mi WNW 8.1 mph - N/A   Overcast
6:55 PM 28.0 °F 20.8 °F 26.1 °F 92% 29.92 in 7.0 mi NW 6.9 mph - N/A   Overcast
7:55 PM 27.0 °F 21.6 °F 25.0 °F 92% 29.92 in 10.0 mi WNW 4.6 mph - N/A   Overcast
8:55 PM 27.0 °F 20.5 °F 25.0 °F 92% 29.90 in 7.0 mi NNW 5.8 mph - N/A   Overcast
9:55 PM 27.0 °F 21.6 °F 25.0 °F 92% 29.89 in 5.0 mi North 4.6 mph - N/A   Overcast
10:06 PM 27.0 °F 23.0 °F 25.0 °F 92% 29.85 in 4.0 mi NW 3.5 mph - N/A   Overcast
10:16 PM 27.0 °F - 25.0 °F 92% 29.84 in 5.0 mi Calm Calm - N/A   Overcast
10:31 PM 27.0 °F 23.0 °F 25.0 °F 92% 29.86 in 5.0 mi West 3.5 mph - N/A   Overcast
10:55 PM 27.0 °F 21.6 °F 25.0 °F 92% 29.92 in 5.0 mi SW 4.6 mph - N/A   Overcast
11:55 PM 27.0 °F 19.5 °F 25.0 °F 92% 29.93 in 4.0 mi West 6.9 mph - N/A   Overcast